Weather History for Boonville, MO

Change the Weather History Date:

Monday, January 7, 2013

  Actual Average Record
Temperature  
Mean Temperature 35 °F -  
Max Temperature 49 °F 35 °F 56 °F (1961)
Min Temperature 21 °F 16 °F -11 °F (1968)
Degree Days  
Heating Degree Days 30    
Moisture  
Dew Point 23 °F    
Average Humidity 63    
Maximum Humidity 87    
Minimum Humidity 38    
Precipitation  
Precipitation 0.00 in - - ()
Sea Level Pressure  
Sea Level Pressure 30.21 in    
Wind  
Wind Speed 7 mph (South)    
Max Wind Speed 13 mph    
Max Gust Speed 17 mph    
Visibility 10 miles    
Events      
Averages and records for this station are not official NWS values.
T = Trace of Precipitation, MM = Missing Value Source: NWS Daily Summary

Daily Weather History Graph

Daily Weather History Graph

Search for Another Location

Airport:

Trip Planner

Search our weather history database for the weather conditions in past years. The results will help you decide how hot, cold, wet, or windy it might be!

Date:

Astronomy

Jan. 07, 2013 Rise Set
Actual Time 7:29 AM CST 5:04 PM CST
Civil Twilight 7:00 AM CST 5:34 PM CST
Nautical Twilight 6:26 AM CST 6:07 PM CST
Astronomical Twilight 5:54 AM CST 6:39 PM CST
Moon 2:54 AM CST (1/7) 1:15 PM CST (1/7)
Length of Visible Light 10h 34m
Length of Day
9h 35m
Waning Crescent, 22% of the Moon is Illuminated
Jan 7
Waning Crescent
Jan 11
New
Jan 18
First Quarter
Jan 26
Full
Feb 3
Last Quarter

Hourly Weather History & Observations

Time (CST) Temp. Windchill Dew Point Humidity Pressure Visibility Wind Dir Wind Speed Gust Speed Precip Events Conditions
12:15 AM 23.2 °F 18.7 °F 19.2 °F 85% 30.34 in 10.0 mi SSE 3.5 mph - N/A   Clear
12:55 AM 21.7 °F 13.2 °F 18.3 °F 87% 30.33 in 10.0 mi SSE 6.9 mph - N/A   Clear
1:35 AM 22.6 °F 15.3 °F 18.7 °F 85% 30.33 in 10.0 mi SSE 5.8 mph - N/A   Clear
1:55 AM 22.8 °F 15.5 °F 18.5 °F 83% 30.33 in 10.0 mi SSE 5.8 mph - N/A   Clear
2:15 AM 23.2 °F 16.0 °F 18.7 °F 83% 30.33 in 10.0 mi South 5.8 mph - N/A   Clear
2:35 AM 22.8 °F 15.5 °F 18.3 °F 83% 30.33 in 10.0 mi SSE 5.8 mph - N/A   Clear
2:55 AM 23.4 °F 14.3 °F 18.9 °F 83% 30.32 in 10.0 mi SSE 8.1 mph - N/A   Clear
3:15 AM 23.7 °F 16.6 °F 19.2 °F 83% 30.32 in 10.0 mi SSE 5.8 mph - N/A   Clear
3:35 AM 24.1 °F 16.0 °F 18.9 °F 80% 30.32 in 10.0 mi South 6.9 mph - N/A   Clear
3:55 AM 24.3 °F 16.3 °F 18.9 °F 80% 30.31 in 10.0 mi South 6.9 mph - N/A   Clear
4:15 AM 24.1 °F 15.2 °F 18.9 °F 80% 30.30 in 10.0 mi SSE 8.1 mph - N/A   Clear
4:35 AM 24.8 °F 16.9 °F 19.4 °F 80% 30.29 in 10.0 mi SSE 6.9 mph - N/A   Clear
4:55 AM 24.6 °F 16.7 °F 19.4 °F 81% 30.28 in 10.0 mi SSE 6.9 mph - N/A   Clear
5:15 AM 23.9 °F 18.0 °F 19.2 °F 82% 30.28 in 10.0 mi SSE 4.6 mph - N/A   Clear
5:35 AM 24.3 °F 15.4 °F 19.2 °F 81% 30.28 in 10.0 mi SSE 8.1 mph - N/A   Clear
6:35 AM 25.5 °F 17.8 °F 18.7 °F 75% 30.29 in 10.0 mi SSE 6.9 mph - N/A   Clear
6:55 AM 25.0 °F 19.3 °F 18.3 °F 76% 30.29 in 10.0 mi South 4.6 mph - N/A   Clear
7:15 AM 24.6 °F 17.7 °F 18.0 °F 76% 30.29 in 10.0 mi South 5.8 mph - N/A   Clear
7:35 AM 24.1 °F 16.0 °F 17.8 °F 77% 30.29 in 10.0 mi SSE 6.9 mph - N/A   Clear
7:55 AM 24.3 °F 17.3 °F 18.3 °F 78% 30.29 in 10.0 mi SSE 5.8 mph - N/A   Clear
8:15 AM 25.9 °F 18.2 °F 19.0 °F 75% 30.29 in 10.0 mi South 6.9 mph - N/A   Clear
8:35 AM 28.0 °F 20.8 °F 19.8 °F 71% 30.30 in 10.0 mi South 6.9 mph - N/A   Clear
9:15 AM 31.5 °F 24.2 °F 22.1 °F 68% 30.29 in 10.0 mi South 8.1 mph - N/A   Clear
9:35 AM 32.9 °F 25.3 °F 22.3 °F 65% 30.30 in 10.0 mi South 9.2 mph - N/A   Clear
9:55 AM 34.9 °F 28.3 °F 22.5 °F 61% 30.30 in 10.0 mi South 8.1 mph - N/A   Clear
10:15 AM 36.3 °F 30.1 °F 22.5 °F 57% 30.29 in 10.0 mi South 8.1 mph - N/A   Clear
10:35 AM 37.4 °F 29.8 °F 23.0 °F 56% 30.28 in 10.0 mi South 11.5 mph - N/A   Clear
10:55 AM 38.7 °F 30.9 °F 23.4 °F 54% 30.27 in 10.0 mi South 12.7 mph - N/A   Clear
11:15 AM 39.9 °F 32.5 °F 23.2 °F 51% 30.25 in 10.0 mi South 12.7 mph - N/A   Clear
11:35 AM 41.0 °F 35.2 °F 23.9 °F 51% 30.24 in 10.0 mi South 9.2 mph - N/A   Clear
11:55 AM 41.7 °F 35.6 °F 23.9 °F 49% 30.23 in 10.0 mi South 10.4 mph - N/A   Clear
12:15 PM 42.8 °F 37.0 °F 24.6 °F 49% 30.21 in 10.0 mi South 10.4 mph - N/A   Clear
12:35 PM 44.2 °F 38.8 °F 25.0 °F 47% 30.20 in 10.0 mi South 10.4 mph - N/A   Clear
1:15 PM 46.8 °F - 26.2 °F 45% 30.18 in 10.0 mi South 6.9 mph - N/A   Clear
1:35 PM 48.2 °F - 26.1 °F 42% 30.17 in 10.0 mi SSW 9.2 mph - N/A   Clear
1:55 PM 49.3 °F - 24.8 °F 38% 30.16 in 10.0 mi South 9.2 mph 17.3 mph N/A   Clear
2:15 PM 49.1 °F - 24.8 °F 39% 30.15 in 10.0 mi South 9.2 mph - N/A   Clear
2:35 PM 48.9 °F - 25.0 °F 39% 30.15 in 10.0 mi SSW 6.9 mph - N/A   Clear
2:55 PM 47.7 °F - 25.5 °F 42% 30.15 in 10.0 mi SSW 6.9 mph - N/A   Clear
3:15 PM 48.7 °F - 26.2 °F 42% 30.15 in 10.0 mi South 5.8 mph - N/A   Clear
3:35 PM 49.3 °F - 25.0 °F 39% 30.15 in 10.0 mi South 8.1 mph - N/A   Clear
3:55 PM 47.3 °F - 25.5 °F 43% 30.13 in 10.0 mi South 10.4 mph - N/A   Clear
4:15 PM 46.4 °F 42.4 °F 26.8 °F 46% 30.13 in 10.0 mi South 8.1 mph - N/A   Clear
4:35 PM 45.7 °F 40.6 °F 27.1 °F 48% 30.12 in 10.0 mi South 10.4 mph - N/A   Clear
5:15 PM 44.4 °F 42.0 °F 25.2 °F 47% 30.12 in 10.0 mi SSW 4.6 mph - N/A   Clear
5:35 PM 42.8 °F - 24.8 °F 49% 30.11 in 10.0 mi Calm Calm - N/A   Clear
5:55 PM 41.7 °F 39.8 °F 24.6 °F 51% 30.12 in 10.0 mi South 3.5 mph - N/A   Clear
6:15 PM 41.7 °F 38.0 °F 24.6 °F 51% 30.12 in 10.0 mi South 5.8 mph - N/A   Clear
6:35 PM 40.5 °F 34.6 °F 24.6 °F 53% 30.11 in 10.0 mi South 9.2 mph - N/A   Clear
6:55 PM 38.1 °F 33.7 °F 25.0 °F 59% 30.11 in 10.0 mi South 5.8 mph - N/A   Clear
7:15 PM 38.8 °F 34.6 °F 24.4 °F 56% 30.11 in 10.0 mi South 5.8 mph - N/A   Clear
7:35 PM 38.1 °F 32.9 °F 24.1 °F 57% 30.10 in 10.0 mi South 6.9 mph - N/A   Clear
7:55 PM 36.3 °F 31.6 °F 23.9 °F 61% 30.10 in 10.0 mi SSE 5.8 mph - N/A   Clear
8:15 PM 35.4 °F 29.7 °F 24.1 °F 63% 30.10 in 10.0 mi SSE 6.9 mph - N/A   Clear
8:35 PM 34.9 °F 27.7 °F 24.1 °F 65% 30.10 in 10.0 mi South 9.2 mph - N/A   Clear
8:55 PM 35.1 °F 29.3 °F 23.9 °F 64% 30.10 in 10.0 mi South 6.9 mph - N/A   Clear
9:15 PM 34.9 °F 27.1 °F 24.1 °F 65% 30.10 in 10.0 mi SSE 10.4 mph - N/A   Clear
9:35 PM 35.8 °F 30.1 °F 24.3 °F 63% 30.11 in 10.0 mi South 6.9 mph - N/A   Clear
9:55 PM 35.6 °F 29.2 °F 24.3 °F 63% 30.10 in 10.0 mi South 8.1 mph - N/A   Clear
10:15 PM 35.4 °F 29.0 °F 24.1 °F 63% 30.11 in 10.0 mi South 8.1 mph - N/A   Clear
10:35 PM 35.4 °F 29.0 °F 24.1 °F 63% 30.10 in 10.0 mi South 8.1 mph - N/A   Clear
10:55 PM 35.8 °F 30.9 °F 23.9 °F 62% 30.11 in 10.0 mi South 5.8 mph - N/A   Clear
11:15 PM 34.9 °F - 24.1 °F 65% 30.10 in 10.0 mi Calm Calm - N/A   Clear
11:35 PM 33.8 °F 28.6 °F 24.3 °F 68% 30.10 in 10.0 mi SSE 5.8 mph - N/A   Clear
11:55 PM 33.1 °F 27.7 °F 23.9 °F 69% 30.10 in 10.0 mi SSE 5.8 mph - N/A   Clear